Cloud_Cover
100 91 100 100 100 100 99 30 32 17 16 5 5 10 9 5 19 7 5 5 5 53 87 5 14 9 5 5 40 7 5 17 7 12 6 4 11 19 6 5 4 4 0
66 91 100 100 99 71 23 83 85 40 5 5 5 5 5 5 24 72 6 19 8 94 7 5 34 63 19 93 100 98 6 0 0 19 9 37 17 100 100 5 0 0 0
100 100 100 78 100 99 19 27 18 24 100 21 51 53 19 58 64 27 64 48 56 100 44 96 100 17 5 49 96 5 0 0 1 8 5 5 42 100 90 5 25 0 5
100 100 80 75 100 79 44 24 67 17 100 79 46 40 27 22 14 10 7 91 62 100 17 4 4 5 18 5 5 1 0 0 5 4 6 17 91 100 66 77 30 1 5
100 100 92 94 100 100 100 81 74 90 77 66 54 78 60 10 15 1 5 6 20 14 4 2 4 5 5 4 5 9 0 0 5 2 3 6 94 94 97 90 53 5 5
84 100 100 100 100 88 87 78 57 69 87 82 27 93 99 32 0 0 2 0 0 0 3 5 6 5 5 1 5 5 2 5 1 2 5 5 8 100 100 82 48 70 46
100 100 100 98 81 82 43 68 71 49 84 30 41 96 77 27 5 2 0 4 4 2 4 5 10 63 8 2 5 71 100 41 4 0 82 99 100 100 100 100 28 99 100
100 100 100 100 100 100 26 48 67 89 22 89 17 5 48 13 5 4 5 5 5 5 5 5 24 13 2 0 100 71 45 2 0 3 16 100 100 100 100 98 99 90 100
100 100 100 100 100 100 100 100 98 99 92 100 66 38 18 31 5 3 5 23 5 5 5 5 5 4 80 18 69 83 30 0 0 7 100 100 100 100 100 96 98 100 100
100 100 100 100 100 100 100 100 100 100 100 100 98 100 94 93 97 54 98 94 56 5 6 13 3 5 7 9 5 13 74 2 6 8 89 100 100 100 100 98 100 100 100
100 100 100 100 100 100 100 100 100 100 100 94 100 100 100 100 100 100 100 55 64 8 5 99 16 51 53 5 100 91 91 5 47 48 100 100 100 100 100 100 100 100 100
100 100 100 100 100 100 100 100 100 100 100 100 100 100 100 100 100 93 98 100 100 98 92 100 93 98 100 6 63 100 100 100 88 100 100 100 100 100 100 100 100 100 100
100 100 100 100 100 100 100 100 100 100 100 100 100 100 100 100 100 100 84 100 100 100 100 100 97 40 65 12 54 100 98 100 100 100 86 100 100 100 100 100 98 100 100
100 100 100 100 100 100 100 100 100 100 100 100 100 100 100 86 96 100 99 94 100 94 93 100 100 100 47 96 94 100 100 100 100 100 100 100 99 59 100 99 99 100 100
100 100 100 100 100 100 100 100 100 100 100 100 100 100 100 98 100 100 100 100 100 100 100 100 99 98 100 100 100 100 100 100 100 100 100 100 100 91 100 100 100 100 100
100 100 100 100 100 100 100 100 100 100 100 100 100 100 100 100 100 100 100 100 100 100 100 100 100 100 96 100 100 100 100 100 100 100 100 100 100 59 100 100 100 100 100
100 100 100 100 100 100 100 100 100 100 100 100 100 100 100 100 100 100 100 100 100 100 100 100 100 100 100 100 100 100 100 100 100 100 100 100 100 100 100 100 100 100 100
100 100 100 100 100 100 100 100 100 100 100 100 100 100 100 100 100 100 100 100 100 100 100 100 100 100 100 100 100 100 100 100 100 100 91 100 100 100 100 100 100 100 100
100 100 100 100 100 100 100 100 100 100 100 100 100 100 100 100 100 100 96 100 96 100 100 100 100 100 100 100 100 100 100 100 100 100 100 100 100 100 100 100 100 100 100
100 100 100 100 100 100 100 100 100 100 100 100 84 100 100 100 46 63 100 81 99 69 86 100 100 100 100 100 100 100 100 100 100 100 100 86 100 100 100 100 100 100 100
100 100 100 100 100 100 100 100 100 100 100 95 98 100 65 27 5 94 99 95 100 100 100 100 100 100 100 100 100 100 100 100 100 100 94 99 100 100 100 100 100 100 100
100 100 100 100 100 100 100 66 79 100 58 5 98 100 27 100 100 8 100 100 88 100 100 100 100 100 100 100 100 100 100 100 100 86 52 59 100 98 100 100 100 100 100
100 100 100 100 100 100 86 100 99 100 100 100 100 98 100 100 98 100 63 97 98 71 85 99 100 100 100 100 100 100 100 100 99 6 39 94 100 100 100 100 100 100 100
92 100 100 100 100 100 100 100 100 100 100 100 100 100 100 81 100 100 99 92 92 96 100 100 100 100 100 100 100 100 100 99 100 73 72 100 100 100 100 100 100 100 100
100 100 100 100 100 88 100 100 100 100 100 100 91 98 100 100 100 100 63 92 100 100 93 31 10 11 89 100 100 91 42 79 98 100 100 100 100 100 100 100 100 100 100
100 100 100 100 100 100 100 100 100 100 100 97 75 95 96 100 100 96 99 99 93 41 5 5 5 1 5 5 15 9 58 96 99 100 100 100 100 100 100 100 100 100 100